Tracking 20621 objects as of 31-Mar-2020
HD Live streaming from Space Station
objects crossing your sky now

COSMOS 2498

Track COSMOS 2498 now!
10-day predictions
COSMOS 2498 is classified as:


NORAD ID: 39763
Int'l Code: 2014-028C
Perigee: 1,486.3 km
Apogee: 1,516.8 km
Inclination: 82.4 °
Period: 115.9 minutes
Semi major axis: 7872 km
RCS: Unknown
Launch date: May 23, 2014
Source: Commonwealth of Independent States (former USSR) (CIS)
Launch site: PLESETSK MISSILE AND SPACE COMPLEX (PKMTR)

COSMOS 2498 is part of the Russian military's Rodnik, or Strela 3M, system designed to relay messages between users posted in remote locations.
aabbcc
Your satellite tracking list
Your tracking list is empty




NASA's NSSDC Master Catalog

Two Line Element Set (TLE):
1 39763U 14028C   20090.75339945 +.00000033 +00000-0 +16525-3 0  9997
2 39763 082.4421 090.3714 0019407 340.7313 019.3030 12.42885531265667
Source of the keplerian elements: AFSPC